<?xml version="1.0"?>
<gpx xmlns="http://www.topografix.com/GPX/1/1" xmlns:xsi="http://www.w3.org/2001/XMLSchema-instance" version="1.1" creator="GPX RubyGem 1.0.0 -- http://dougfales.github.io/gpx/" xsi:schemaLocation="http://www.topografix.com/GPX/1/1 http://www.topografix.com/GPX/1/1/gpx.xsd">
  <metadata>
    <name/>
    <time>2026-05-08T02:16:39+00:00</time>
    <bound minlat="90.0" minlon="180.0" maxlat="-90.0" maxlon="-180.0"/>
  </metadata>
  <trk>
    <name/>
    <trkseg>
      <trkpt lat="46.459011" lon="13.837107">
        <time>1970-01-01T00:00:00+00:00</time>
        <ele>1348.0</ele>
      </trkpt>
      <trkpt lat="46.458871" lon="13.837027">
        <time>1970-01-01T00:00:00+00:00</time>
        <ele>1343.0</ele>
      </trkpt>
      <trkpt lat="46.458812" lon="13.837172">
        <time>1970-01-01T00:00:00+00:00</time>
        <ele>1337.0</ele>
      </trkpt>
      <trkpt lat="46.458844" lon="13.83745">
        <time>1970-01-01T00:00:00+00:00</time>
        <ele>1335.0</ele>
      </trkpt>
      <trkpt lat="46.458708" lon="13.837327">
        <time>1970-01-01T00:00:00+00:00</time>
        <ele>1330.0</ele>
      </trkpt>
      <trkpt lat="46.458682" lon="13.837445">
        <time>1970-01-01T00:00:00+00:00</time>
        <ele>1328.0</ele>
      </trkpt>
      <trkpt lat="46.458534" lon="13.837375">
        <time>1970-01-01T00:00:00+00:00</time>
        <ele>1324.0</ele>
      </trkpt>
      <trkpt lat="46.458444" lon="13.837421">
        <time>1970-01-01T00:00:00+00:00</time>
        <ele>1321.0</ele>
      </trkpt>
      <trkpt lat="46.458455" lon="13.837562">
        <time>1970-01-01T00:00:00+00:00</time>
        <ele>1319.0</ele>
      </trkpt>
      <trkpt lat="46.458197" lon="13.837659">
        <time>1970-01-01T00:00:00+00:00</time>
        <ele>1311.0</ele>
      </trkpt>
      <trkpt lat="46.459242" lon="13.838596">
        <time>1970-01-01T00:00:00+00:00</time>
        <ele>1305.0</ele>
      </trkpt>
      <trkpt lat="46.459349" lon="13.838346">
        <time>1970-01-01T00:00:00+00:00</time>
        <ele>1315.0</ele>
      </trkpt>
      <trkpt lat="46.459299" lon="13.838277">
        <time>1970-01-01T00:00:00+00:00</time>
        <ele>1317.0</ele>
      </trkpt>
      <trkpt lat="46.459399" lon="13.838261">
        <time>1970-01-01T00:00:00+00:00</time>
        <ele>1319.0</ele>
      </trkpt>
      <trkpt lat="46.459691" lon="13.838483">
        <time>1970-01-01T00:00:00+00:00</time>
        <ele>1309.0</ele>
      </trkpt>
      <trkpt lat="46.459907" lon="13.838462">
        <time>1970-01-01T00:00:00+00:00</time>
        <ele>1305.0</ele>
      </trkpt>
      <trkpt lat="46.46017" lon="13.838099">
        <time>1970-01-01T00:00:00+00:00</time>
        <ele>1295.0</ele>
      </trkpt>
      <trkpt lat="46.46034" lon="13.837187">
        <time>1970-01-01T00:00:00+00:00</time>
        <ele>1291.0</ele>
      </trkpt>
      <trkpt lat="46.460711" lon="13.836662">
        <time>1970-01-01T00:00:00+00:00</time>
        <ele>1241.0</ele>
      </trkpt>
      <trkpt lat="46.460892" lon="13.835522">
        <time>1970-01-01T00:00:00+00:00</time>
        <ele>1257.0</ele>
      </trkpt>
      <trkpt lat="46.460953" lon="13.835391">
        <time>1970-01-01T00:00:00+00:00</time>
        <ele>1257.0</ele>
      </trkpt>
      <trkpt lat="46.461018" lon="13.835442">
        <time>1970-01-01T00:00:00+00:00</time>
        <ele>1246.0</ele>
      </trkpt>
      <trkpt lat="46.461094" lon="13.835313">
        <time>1970-01-01T00:00:00+00:00</time>
        <ele>1243.0</ele>
      </trkpt>
      <trkpt lat="46.461186" lon="13.835399">
        <time>1970-01-01T00:00:00+00:00</time>
        <ele>1226.0</ele>
      </trkpt>
      <trkpt lat="46.461301" lon="13.835138">
        <time>1970-01-01T00:00:00+00:00</time>
        <ele>1224.0</ele>
      </trkpt>
      <trkpt lat="46.461376" lon="13.835222">
        <time>1970-01-01T00:00:00+00:00</time>
        <ele>1210.0</ele>
      </trkpt>
      <trkpt lat="46.461561" lon="13.835104">
        <time>1970-01-01T00:00:00+00:00</time>
        <ele>1194.0</ele>
      </trkpt>
      <trkpt lat="46.461714" lon="13.834884">
        <time>1970-01-01T00:00:00+00:00</time>
        <ele>1182.0</ele>
      </trkpt>
      <trkpt lat="46.461918" lon="13.835047">
        <time>1970-01-01T00:00:00+00:00</time>
        <ele>1166.0</ele>
      </trkpt>
      <trkpt lat="46.462006" lon="13.834862">
        <time>1970-01-01T00:00:00+00:00</time>
        <ele>1162.0</ele>
      </trkpt>
      <trkpt lat="46.462272" lon="13.835031">
        <time>1970-01-01T00:00:00+00:00</time>
        <ele>1144.0</ele>
      </trkpt>
      <trkpt lat="46.462296" lon="13.834688">
        <time>1970-01-01T00:00:00+00:00</time>
        <ele>1147.0</ele>
      </trkpt>
      <trkpt lat="46.462592" lon="13.834739">
        <time>1970-01-01T00:00:00+00:00</time>
        <ele>1130.0</ele>
      </trkpt>
      <trkpt lat="46.462692" lon="13.83499">
        <time>1970-01-01T00:00:00+00:00</time>
        <ele>1121.0</ele>
      </trkpt>
      <trkpt lat="46.462952" lon="13.834815">
        <time>1970-01-01T00:00:00+00:00</time>
        <ele>1111.0</ele>
      </trkpt>
      <trkpt lat="46.463329" lon="13.83474">
        <time>1970-01-01T00:00:00+00:00</time>
        <ele>1092.0</ele>
      </trkpt>
      <trkpt lat="46.463521" lon="13.834574">
        <time>1970-01-01T00:00:00+00:00</time>
        <ele>1086.0</ele>
      </trkpt>
      <trkpt lat="46.463436" lon="13.834483">
        <time>1970-01-01T00:00:00+00:00</time>
        <ele>1090.0</ele>
      </trkpt>
      <trkpt lat="46.46348" lon="13.83437">
        <time>1970-01-01T00:00:00+00:00</time>
        <ele>1089.0</ele>
      </trkpt>
      <trkpt lat="46.463717" lon="13.834366">
        <time>1970-01-01T00:00:00+00:00</time>
        <ele>1080.0</ele>
      </trkpt>
      <trkpt lat="46.463769" lon="13.83428">
        <time>1970-01-01T00:00:00+00:00</time>
        <ele>1078.0</ele>
      </trkpt>
      <trkpt lat="46.463652" lon="13.83416">
        <time>1970-01-01T00:00:00+00:00</time>
        <ele>1084.0</ele>
      </trkpt>
      <trkpt lat="46.463745" lon="13.834074">
        <time>1970-01-01T00:00:00+00:00</time>
        <ele>1079.0</ele>
      </trkpt>
      <trkpt lat="46.464006" lon="13.834">
        <time>1970-01-01T00:00:00+00:00</time>
        <ele>1067.0</ele>
      </trkpt>
      <trkpt lat="46.464111" lon="13.834063">
        <time>1970-01-01T00:00:00+00:00</time>
        <ele>1062.0</ele>
      </trkpt>
      <trkpt lat="46.464286" lon="13.834043">
        <time>1970-01-01T00:00:00+00:00</time>
        <ele>1052.0</ele>
      </trkpt>
      <trkpt lat="46.463983" lon="13.833678">
        <time>1970-01-01T00:00:00+00:00</time>
        <ele>1068.0</ele>
      </trkpt>
      <trkpt lat="46.463967" lon="13.833409">
        <time>1970-01-01T00:00:00+00:00</time>
        <ele>1068.0</ele>
      </trkpt>
      <trkpt lat="46.46422" lon="13.833582">
        <time>1970-01-01T00:00:00+00:00</time>
        <ele>1057.0</ele>
      </trkpt>
      <trkpt lat="46.464685" lon="13.833324">
        <time>1970-01-01T00:00:00+00:00</time>
        <ele>1030.0</ele>
      </trkpt>
      <trkpt lat="46.464708" lon="13.833131">
        <time>1970-01-01T00:00:00+00:00</time>
        <ele>1027.0</ele>
      </trkpt>
      <trkpt lat="46.465003" lon="13.832992">
        <time>1970-01-01T00:00:00+00:00</time>
        <ele>1018.0</ele>
      </trkpt>
      <trkpt lat="46.465254" lon="13.832498">
        <time>1970-01-01T00:00:00+00:00</time>
        <ele>1006.0</ele>
      </trkpt>
      <trkpt lat="46.465713" lon="13.832101">
        <time>1970-01-01T00:00:00+00:00</time>
        <ele>982.0</ele>
      </trkpt>
      <trkpt lat="46.465705" lon="13.831876">
        <time>1970-01-01T00:00:00+00:00</time>
        <ele>982.0</ele>
      </trkpt>
      <trkpt lat="46.46555" lon="13.831769">
        <time>1970-01-01T00:00:00+00:00</time>
        <ele>988.0</ele>
      </trkpt>
      <trkpt lat="46.465742" lon="13.831425">
        <time>1970-01-01T00:00:00+00:00</time>
        <ele>979.0</ele>
      </trkpt>
      <trkpt lat="46.465942" lon="13.831382">
        <time>1970-01-01T00:00:00+00:00</time>
        <ele>971.0</ele>
      </trkpt>
      <trkpt lat="46.466149" lon="13.831651">
        <time>1970-01-01T00:00:00+00:00</time>
        <ele>967.0</ele>
      </trkpt>
      <trkpt lat="46.466925" lon="13.831683">
        <time>1970-01-01T00:00:00+00:00</time>
        <ele>950.0</ele>
      </trkpt>
      <trkpt lat="46.467552" lon="13.831543">
        <time>1970-01-01T00:00:00+00:00</time>
        <ele>936.0</ele>
      </trkpt>
      <trkpt lat="46.468513" lon="13.830706">
        <time>1970-01-01T00:00:00+00:00</time>
        <ele>937.0</ele>
      </trkpt>
      <trkpt lat="46.468862" lon="13.829798">
        <time>1970-01-01T00:00:00+00:00</time>
        <ele>935.0</ele>
      </trkpt>
      <trkpt lat="46.469136" lon="13.829501">
        <time>1970-01-01T00:00:00+00:00</time>
        <ele>933.0</ele>
      </trkpt>
      <trkpt lat="46.469479" lon="13.82961">
        <time>1970-01-01T00:00:00+00:00</time>
        <ele>929.0</ele>
      </trkpt>
      <trkpt lat="46.469721" lon="13.829382">
        <time>1970-01-01T00:00:00+00:00</time>
        <ele>927.0</ele>
      </trkpt>
      <trkpt lat="46.469832" lon="13.829008">
        <time>1970-01-01T00:00:00+00:00</time>
        <ele>928.0</ele>
      </trkpt>
      <trkpt lat="46.469838" lon="13.828817">
        <time>1970-01-01T00:00:00+00:00</time>
        <ele>929.0</ele>
      </trkpt>
      <trkpt lat="46.470204" lon="13.828461">
        <time>1970-01-01T00:00:00+00:00</time>
        <ele>928.0</ele>
      </trkpt>
      <trkpt lat="46.470263" lon="13.827968">
        <time>1970-01-01T00:00:00+00:00</time>
        <ele>932.0</ele>
      </trkpt>
      <trkpt lat="46.470543" lon="13.827894">
        <time>1970-01-01T00:00:00+00:00</time>
        <ele>930.0</ele>
      </trkpt>
      <trkpt lat="46.471803" lon="13.826842">
        <time>1970-01-01T00:00:00+00:00</time>
        <ele>938.0</ele>
      </trkpt>
      <trkpt lat="46.473004" lon="13.826775">
        <time>1970-01-01T00:00:00+00:00</time>
        <ele>937.0</ele>
      </trkpt>
      <trkpt lat="46.473168" lon="13.827105">
        <time>1970-01-01T00:00:00+00:00</time>
        <ele>925.0</ele>
      </trkpt>
      <trkpt lat="46.473455" lon="13.82743">
        <time>1970-01-01T00:00:00+00:00</time>
        <ele>921.0</ele>
      </trkpt>
      <trkpt lat="46.473721" lon="13.827968">
        <time>1970-01-01T00:00:00+00:00</time>
        <ele>911.0</ele>
      </trkpt>
      <trkpt lat="46.474337" lon="13.828507">
        <time>1970-01-01T00:00:00+00:00</time>
        <ele>905.0</ele>
      </trkpt>
      <trkpt lat="46.474434" lon="13.828731">
        <time>1970-01-01T00:00:00+00:00</time>
        <ele>902.0</ele>
      </trkpt>
      <trkpt lat="46.475276" lon="13.82979">
        <time>1970-01-01T00:00:00+00:00</time>
        <ele>887.0</ele>
      </trkpt>
      <trkpt lat="46.475477" lon="13.830273">
        <time>1970-01-01T00:00:00+00:00</time>
        <ele>876.0</ele>
      </trkpt>
      <trkpt lat="46.475555" lon="13.830353">
        <time>1970-01-01T00:00:00+00:00</time>
        <ele>875.0</ele>
      </trkpt>
      <trkpt lat="46.476005" lon="13.830032">
        <time>1970-01-01T00:00:00+00:00</time>
        <ele>875.0</ele>
      </trkpt>
      <trkpt lat="46.476028" lon="13.830099">
        <time>1970-01-01T00:00:00+00:00</time>
        <ele>872.0</ele>
      </trkpt>
      <trkpt lat="46.47585" lon="13.830643">
        <time>1970-01-01T00:00:00+00:00</time>
        <ele>865.0</ele>
      </trkpt>
      <trkpt lat="46.475874" lon="13.830769">
        <time>1970-01-01T00:00:00+00:00</time>
        <ele>859.0</ele>
      </trkpt>
      <trkpt lat="46.476109" lon="13.830716">
        <time>1970-01-01T00:00:00+00:00</time>
        <ele>854.0</ele>
      </trkpt>
      <trkpt lat="46.476316" lon="13.830764">
        <time>1970-01-01T00:00:00+00:00</time>
        <ele>845.0</ele>
      </trkpt>
      <trkpt lat="46.476835" lon="13.831214">
        <time>1970-01-01T00:00:00+00:00</time>
        <ele>821.0</ele>
      </trkpt>
      <trkpt lat="46.477445" lon="13.832002">
        <time>1970-01-01T00:00:00+00:00</time>
        <ele>796.0</ele>
      </trkpt>
      <trkpt lat="46.477989" lon="13.832278">
        <time>1970-01-01T00:00:00+00:00</time>
        <ele>779.0</ele>
      </trkpt>
      <trkpt lat="46.478299" lon="13.832557">
        <time>1970-01-01T00:00:00+00:00</time>
        <ele>771.0</ele>
      </trkpt>
      <trkpt lat="46.478614" lon="13.832682">
        <time>1970-01-01T00:00:00+00:00</time>
        <ele>764.0</ele>
      </trkpt>
      <trkpt lat="46.479144" lon="13.832645">
        <time>1970-01-01T00:00:00+00:00</time>
        <ele>758.0</ele>
      </trkpt>
      <trkpt lat="46.480458" lon="13.831194">
        <time>1970-01-01T00:00:00+00:00</time>
        <ele>755.0</ele>
      </trkpt>
      <trkpt lat="46.480715" lon="13.8312">
        <time>1970-01-01T00:00:00+00:00</time>
        <ele>754.0</ele>
      </trkpt>
      <trkpt lat="46.480926" lon="13.830728">
        <time>1970-01-01T00:00:00+00:00</time>
        <ele>757.0</ele>
      </trkpt>
      <trkpt lat="46.481136" lon="13.830551">
        <time>1970-01-01T00:00:00+00:00</time>
        <ele>753.0</ele>
      </trkpt>
      <trkpt lat="46.481686" lon="13.83065">
        <time>1970-01-01T00:00:00+00:00</time>
        <ele>747.0</ele>
      </trkpt>
      <trkpt lat="46.48272" lon="13.831186">
        <time>1970-01-01T00:00:00+00:00</time>
        <ele>746.0</ele>
      </trkpt>
      <trkpt lat="46.483533" lon="13.831337">
        <time>1970-01-01T00:00:00+00:00</time>
        <ele>747.0</ele>
      </trkpt>
      <trkpt lat="46.484202" lon="13.831038">
        <time>1970-01-01T00:00:00+00:00</time>
        <ele>748.0</ele>
      </trkpt>
    </trkseg>
  </trk>
</gpx>
